Home   Weather   Hofuf   Past weeks
Flag for Saudi Arabia

Past Weather in Hofuf, Saudi Arabia — Yesterday and Last 2 Weeks

Now
84 °F

Clear.


Feels Like: 91 °F
Forecast: 99 / 77 °F
Wind: 5 mph from Northeast

Location: Al Ahsa

Current Time: Oct 15, 2019 at 12:33:56 am

Latest Report: Oct 14, 2019 at 11:00 pm


Visibility: 10 mi

Pressure: 29.98 "Hg

Humidity: 70%

Dew Point: 73 °F

Location of HofufLocation

Past Weather in Hofuf — Graph

°F

Hofuf Temperature Yesterday

Maximum temperature yesterday: 100 °F (at 2:00 pm)
Minimum temperature yesterday: 75 °F (at 6:00 am)
Average temperature yesterday: 89 °F

High & Low Weather Summary for the Past Weeks

 TemperatureHumidityPressure
High113 °F (Oct 2, 3:00 pm)100% (Oct 14, 6:00 am)30.01 "Hg (Oct 14, 6:00 am)
Low73 °F (Oct 6, 5:00 am)6% (Oct 3, 1:00 pm)29.68 "Hg (Oct 4, 2:00 pm)
Average92 °F34%29.81 "Hg
* Reported Sep 29 11:00 pm — Oct 14 11:00 pm, Hofuf. Weather by CustomWeather, © 2019

Note: Actual official high and low records may vary slightly from our data, if they occured in-between our weather recording intervals... More about our weather records

Advertising

Hofuf Weather History for the Previous 24 Hours

Scroll right to see more
 ConditionsComfort  
Time TempWeatherWind HumidityBarometerVisibility
11:00 pm
Mon, Oct 14
84 °FClear.5 mph70%29.98 "Hg10 mi
10:00 pm86 °FClear.7 mph62%29.98 "Hg10 mi
9:00 pm88 °FClear.6 mph52%29.98 "Hg10 mi
8:00 pm90 °FClear.6 mph41%29.95 "Hg10 mi
7:00 pm91 °FClear.10 mph34%29.95 "Hg10 mi
6:00 pm95 °FClear.12 mph26%29.92 "Hg10 mi
5:00 pm97 °FSunny.9 mph19%29.92 "Hg10 mi
4:00 pm99 °FSunny.12 mph18%29.89 "Hg10 mi
3:00 pm100 °FSunny.5 mph20%29.92 "Hg10 mi
2:00 pm100 °FSunny.3 mph18%29.92 "Hg10 mi
1:00 pm99 °FSunny.No wind24%29.95 "Hg10 mi
12:00 pm97 °FSunny.7 mph32%29.95 "Hg10 mi
11:00 am95 °FSunny.3 mph36%29.98 "Hg10 mi
10:00 am91 °FSunny.8 mph49%30.01 "Hg10 mi
9:00 am88 °FClear.7 mph66%30.01 "Hg5 mi
8:00 am81 °FFog.3 mph94%29.98 "Hg3 mi
7:00 am77 °FFog.3 mph100%29.98 "Hg1 mi
6:00 am75 °FFog.3 mph100%29.95 "Hg1 mi
5:00 am77 °FFog.No wind94%29.92 "Hg1 mi
4:00 am79 °FFog.5 mph89%29.92 "Hg3 mi
3:00 am82 °FClear.5 mph84%29.92 "Hg4 mi
2:00 am84 °FClear.5 mph79%29.92 "Hg4 mi
1:00 am84 °FClear.5 mph79%29.92 "Hg5 mi
12:00 am86 °FClear.5 mph70%29.92 "Hg5 mi
Weather by CustomWeather, © 2019

See weather overview